Location: Torrington
(42.0650°N, 104.1810°W)
Time: 19:57:36
(UTC-06:00)

Daily predictions for brighter satellites

Satellite Brightness Start Highest point End
(mag) Time Altitude Azimuth Time Altitude Azimuth Time Altitude Azimuth
Milstar 3 Cent rocket 4.2 20:56:53 10° WSW 21:02:13 26° S 21:10:56 10° SE
Cosmos 2061 Rocket 4.5 21:01:24 10° N 21:07:33 46° ENE 21:13:40 10° SSE
Cosmos 614 Rocket 4.4 21:03:39 10° SSW 21:08:50 69° WNW 21:14:02 10° NNE
Cosmos 2227 Rocket 4.0 21:03:45 10° SW 21:09:00 38° WNW 21:14:16 10° N
Cosmos 1242 Rocket 3.0 21:05:51 10° N 21:09:28 45° ENE 21:13:02 10° SSE
ARGOS 4.2 21:06:24 10° SE 21:11:05 31° ENE 21:15:46 10° N
In-Cosmos 22 4.5 21:07:13 10° SSW 21:12:56 79° W 21:18:45 10° N
Cosmos 1908 3.4 21:11:11 10° N 21:15:01 57° E 21:18:48 10° SSE
Cosmos 1408 Rocket 4.3 21:12:21 10° SSE 21:16:14 34° E 21:20:08 10° NNE
SAR-Lupe-1 4.1 21:14:07 10° SSE 21:17:40 66° ENE 21:21:16 10° N
SL-16 R/B 2.6 21:14:13 10° NNW 21:19:49 64° WSW 21:25:24 10° S
USA 234 4.0 21:15:12 10° ENE 21:20:45 29° SE 21:26:16 10° S
Cosmos 2221 2.6 21:18:25 10° N 21:22:50 83° W 21:27:14 10° S
KORONAS-FOTON 4.2 21:19:28 10° SSE 21:23:04 43° E 21:26:42 10° NNE
Cosmos 468 Rocket 4.5 21:18:38 10° N 21:23:35 46° ENE 21:28:26 10° SE
Cosmos 1867 3.7 21:19:39 10° SSW 21:25:05 87° WNW 21:30:36 10° NNE
Cosmos 1850 Rocket 4.4 21:21:18 10° SSW 21:26:27 69° WNW 21:31:40 10° NNE
ERS-1 Rocket 3.1 21:22:31 10° SSE 21:27:29 65° ENE 21:32:29 10° N
Tiangong 1 0.9 21:25:23 10° W 21:28:12 73° N 21:30:59 10° E
Cosmos 1802 Rocket 4.0 21:26:56 10° N 21:33:03 67° E 21:39:10 10° SSE
Abrixas 3.6 21:36:40 10° S 21:38:44 20° SE 21:40:46 10° E
CZ-4B DEB 3.9 21:38:09 10° SSW 21:40:56 36° W 21:43:43 10° NNW
NOAA 11 4.2 21:44:07 10° SSE 21:49:32 89° WSW 21:55:01 10° NNW
Helios 1B rocket 4.0 21:45:55 10° N 21:49:47 38° WNW 21:53:37 10° SW
H-2A R/B 2.7 21:48:33 15° SE 21:52:45 46° ENE 21:57:56 10° N
YAOGAN 6 4.2 21:51:13 10° SSW 21:54:32 33° W 21:57:55 10° NNW
Cosmos 1766 Rocket 3.6 21:50:14 10° S 21:54:34 83° W 21:58:56 10° N
Cosmos 2016 Rocket 4.0 21:50:24 10° N 21:56:41 85° E 22:02:38 11° S
ERBS 2.5 21:53:36 10° NW 21:56:59 61° NE 21:59:06 20° ESE
Cosmos 2227 4.3 21:51:29 10° SSW 21:57:14 84° WNW 22:02:59 10° NNE
Meteor 2-10 4.4 21:52:00 10° N 21:57:35 59° ENE 22:02:02 17° SSE
Cosmos 1328 Rocket 3.7 21:53:45 10° N 21:58:02 56° E 22:01:02 18° SSE
Cosmos 1626 3.7 21:58:40 17° ESE 21:59:43 19° E 22:02:23 10° NE
MetOp-B 4.2 21:55:36 12° SSE 22:00:41 83° WSW 22:06:05 10° NNW
Cosmos 1151 Rocket 3.9 21:57:04 10° N 22:01:04 34° ENE 22:03:27 20° SE
Cosmos 371 Rocket 3.3 21:57:43 10° NNW 22:02:33 70° ENE 22:05:55 19° SSE
Cosmos 1726 2.0 21:59:42 10° N 22:03:24 90° ENE 22:06:01 18° S
Cosmos 1515 Rocket 3.9 22:01:03 10° N 22:05:16 48° ENE 22:07:51 21° SE
USA 245 3.2 22:05:26 20° SSE 22:07:49 89° ENE 22:12:13 10° NNW
GPS 2-05 Rocket1 4.2 22:05:41 10° SW 22:07:28 19° S 22:07:28 19° S
H-2A R/B 3.6 22:07:51 15° ESE 22:09:59 22° ENE 22:13:15 10° NNE
Cosmos 1743 Rocket 3.5 22:07:02 15° S 22:10:29 65° E 22:14:47 10° NNE
YAOGAN 11 4.2 22:09:43 17° S 22:13:09 81° W 22:17:44 10° NNW
Cosmos 1356 4.1 22:12:09 27° SE 22:13:24 37° E 22:16:39 10° NNE
Cosmos 1300 2.6 22:09:43 10° N 22:13:34 90° SSW 22:15:58 22° S
Cosmos 2263 Rocket 2.4 22:10:47 12° S 22:15:49 49° ESE 22:21:11 10° NE
ATLAS 5 CENTAUR R/B 4.3 22:14:32 10° W 22:18:30 25° NW 22:22:47 10° NNE
SPOT 5 3.0 22:14:52 17° S 22:18:37 76° WSW 22:23:46 10° NNW
Cosmos 2228 Rocket 3.1 22:14:32 10° N 22:19:09 88° E 22:22:09 21° S
Abrixas rocket 2.0 22:16:05 10° WNW 22:19:20 84° SSW 22:20:36 34° SE
Lacrosse 5 2.2 22:14:26 10° NW 22:19:23 55° SW 22:22:22 23° SSE
Cosmos 2233 Rocket 4.2 22:14:19 10° N 22:20:26 57° ENE 22:24:21 22° SSE
SL-14 R/B 3.4 22:20:14 13° SSW 22:23:40 73° W 22:27:36 10° N
Cosmos 1354 Rocket 4.5 22:21:04 23° SSE 22:23:49 40° ESE 22:28:41 10° NE
Cosmos 1814 Rocket 4.2 22:19:36 10° NNW 22:24:56 72° WSW 22:28:28 21° S
Cosmos 2058 3.2 22:24:03 27° SSE 22:26:00 50° E 22:30:06 10° NNE
RESURS DK-1 3.5 22:25:20 10° NW 22:29:12 37° WSW 22:31:40 19° SSW
Nimbus 7 Rocket 4.4 22:25:15 10° NNE 22:31:19 87° ESE 22:37:10 11° SSW
Cosmos 841 Rocket 3.4 22:27:12 10° NNW 22:32:28 82° ENE 22:35:19 28° SSE
Cosmos 1763 Rocket 3.5 22:27:58 10° NNW 22:33:05 77° WSW 22:36:00 26° S
Landsat 7 3.8 22:30:44 27° SSE 22:33:18 75° ENE 22:38:04 10° N
Cosmos 1486 Rocket 4.0 22:28:49 10° SSW 22:34:05 84° WNW 22:39:26 10° NNE
SL-08 RB Rocket 4.2 22:32:00 19° S 22:35:06 55° W 22:39:39 10° NNW
Cosmos 1328 4.5 22:31:45 13° SSW 22:35:16 54° W 22:39:15 10° N
DMSP B5D2-2 4.0 22:31:15 10° NNE 22:36:29 69° ESE 22:39:49 22° S
Cosmos 1447 Rocket 4.5 22:38:46 20° S 22:43:25 80° E 22:49:47 10° N
EO 1 Delta rocket 4.3 22:41:52 20° SSW 22:44:56 54° W 22:49:31 10° NNW
Cosmos 1455 2.7 22:42:53 10° N 22:46:37 45° ENE 22:47:26 39° ESE
SPOT 1/Viking Rocket 4.0 22:44:45 22° S 22:48:00 55° W 22:53:04 10° NNW
Terra 1.8 22:46:09 34° SSE 22:48:14 74° ENE 22:53:00 10° N
Cosmos 1844 Rocket 4.1 22:49:03 19° ESE 22:49:17 19° E 22:53:09 10° NE
ARGOS 4.3 22:46:58 14° SSW 22:51:12 36° W 22:56:11 10° NNW
Sich 1 4.2 22:51:22 25° E 22:51:43 26° E 22:55:16 10° NNE
CZ-4 R/B 4.1 22:53:00 10° NNE 22:57:43 50° E 22:59:01 39° SE
Cosmos 2151 3.5 22:56:00 23° SSW 22:58:33 58° W 23:02:49 10° N
Cosmos 304 Rocket 3.7 22:56:26 10° NNW 23:01:15 82° ENE 23:02:53 42° SSE
Cosmos 1943 3.6 22:55:46 10° NNW 23:01:16 54° WSW 23:04:01 28° S
Tiangong 1 2.2 23:01:01 10° W 23:02:40 30° W 23:02:40 30° W
USA 234 3.3 22:57:35 10° NE 23:04:08 79° NW 23:10:40 10° SW
Cosmos 836 Rocket 4.5 22:58:53 10° NNW 23:04:12 88° ENE 23:06:16 39° SSE
deb Chang Zheng 4 3.5 23:01:13 10° NNE 23:05:35 66° ESE 23:06:44 46° SSE
PSLV R/B 3.5 23:06:33 50° NE 23:06:33 50° NE 23:08:59 10° N
Cosmos 1869 3.9 23:03:12 10° N 23:06:55 39° ENE 23:07:20 38° E
Cosmos 1707 Rocket 4.0 23:02:56 10° N 23:07:17 48° ENE 23:08:15 41° ESE
Cosmos 2285 Rocket 4.0 23:05:17 10° NNW 23:11:40 86° WSW 23:14:33 35° SSE
Abrixas 4.2 23:10:41 10° W 23:11:56 23° W 23:11:56 23° W
Cosmos 2034 Rocket 4.4 23:09:25 10° N 23:15:36 51° ENE 23:18:00 34° SE
DELTA 2 DEB (DPAF) 4.4 23:15:00 45° ESE 23:16:01 56° ENE 23:20:25 10° N
Cosmos 1400 Rocket 4.4 23:19:41 23° E 23:19:41 23° E 23:22:39 10° NE
CZ-4C R/B 3.8 23:19:17 47° ESE 23:20:05 56° ENE 23:24:25 10° N
Cosmos 1503 Rocket 4.3 23:16:52 20° SW 23:20:26 63° WNW 23:25:35 10° NNE
SL-19 R/B 4.2 23:15:56 10° NNE 23:21:19 80° WNW 23:24:18 29° SSW
CZ-2C R/B 3.8 23:17:48 10° NE 23:22:02 24° E 23:22:23 24° E
Spot 4 3.8 23:21:11 48° SSE 23:22:34 83° ENE 23:27:27 10° NNW
Cosmos 1666 Rocket 3.6 23:22:32 54° SE 23:23:09 60° E 23:27:33 10° NNE
CARTOSAT-1 4.4 23:23:32 33° SW 23:24:48 43° W 23:28:56 10° NNW
CZ-4B R/B 3.5 23:23:31 10° NNE 23:28:49 81° ESE 23:30:31 44° S
Cosmos 540 Rocket 3.6 23:24:12 10° NNW 23:29:19 65° WSW 23:30:45 45° SSW
SME Rocket 2.9 23:30:22 62° SE 23:30:56 75° ENE 23:35:39 10° NNW
H-2A R/B 3.9 23:29:11 15° SW 23:32:21 24° W 23:36:41 10° NW
Cosmos 968 Rocket 3.6 23:32:53 49° SE 23:33:48 57° ESE 23:38:59 10° NNE
Cosmos 1805 Rocket 3.7 23:33:03 47° SW 23:34:06 67° W 23:38:26 10° N
Cosmos 1626 4.0 23:33:18 19° WSW 23:34:53 26° WNW 23:38:04 10° NNW
Cosmos 1633 Rocket 2.9 23:38:01 68° SE 23:38:23 73° E 23:42:44 10° NNE
Cosmos 1464 Rocket 4.0 23:34:43 10° N 23:40:54 77° W 23:43:14 41° S
Cosmos 2084 Rocket 3.4 23:39:05 10° NNW 23:42:51 59° NE 23:42:59 58° ENE
H-2A R/B 3.1 23:44:58 31° WSW 23:45:48 33° W 23:49:40 10° NNW
CZ-4C R/B 2.0 23:45:00 45° SSW 23:46:40 79° ESE 23:52:36 10° NE
Cosmos 2278 Rocket 3.5 23:47:29 24° E 23:47:29 24° E 23:51:46 10° NE
